Location: El Bakhil
(32.7726°N, 5.5387°W)
Time: 03:18:24
(UTC+00:00)

AO-73 - Pass Details

Date: 03 August 2021
Orbit: 581 x 661 km, 97.6° (Epoch: 26 September)

Event Time Altitude Azimuth Distance (km) Brightness Sun altitude
Rises 03:58:55 0° 35° (NE) 2,966 ? -18.9°
Reaches altitude 10° 04:02:04 10° 59° (ENE) 2,063 ? -18.4°
Maximum altitude 04:04:35 15° 94° (E) 1,770 ? -18.0°
Drops below altitude 10° 04:07:07 10° 128° (SE) 2,069 ? -17.5°
Sets 04:10:16 0° 152° (SSE) 2,980 ? -17.0°
